Regional Weather Roundup
Issued by NWS

Home | Current Version | Previous Version | Text Only | Print | Product List | Glossary Off
Versions: 1 2 3 4 5 6 7 8 9 10 11 12 13 14 15 16 17 18 19 20 21 22 23 24 25 26 27

000
ASUS45 KTFX 180110
RWRMT
MONTANA REGIONAL WEATHER ROUNDUP
NATIONAL WEATHER SERVICE GREAT FALLS MT
600 PM MST SUN DEC 17 2017

NOTE: "FAIR" INDICATES FEW OR NO CLOUDS BELOW 12000 FEET WITH NO
SIGNIFICANT WEATHER AND/OR OBSTRUCTIONS TO VISIBILITY.

MTZ001>007-043-180200-
WEST OF THE DIVIDE

CITY           SKY/WX    TMP DP  RH WIND       PRES   REMARKS
KALISPELL      CLOUDY    32  27  81 S7        29.96F WCI  26
MISSOULA       CLOUDY    25  19  78 CALM      30.06S
BUTTE          CLOUDY    27  17  66 N3        30.00R
MULLAN PASS    LGT SNOW  24  20  84 VRB7      29.90F FOG     WCI  16
ANACONDA         N/A     28  18  64 S13       30.00S WCI  18
DEER LODGE       N/A     27  19  74 CALM      30.00F
EUREKA           N/A     34  25  69 MISG      29.92F
HAMILTON         N/A     36  19  51 S8        30.04S WCI  29
LIBBY            N/A     28  25  86 SE3       29.94F
PLAINS           N/A     31  24  75 CALM      30.02F
RONAN            N/A     31  26  81 CALM      30.03F
$$

MTZ008-052>055-180200-
SOUTHWEST MONTANA

CITY           SKY/WX    TMP DP  RH WIND       PRES   REMARKS
BOZEMAN        CLOUDY    22  18  85 NE6       29.99F WCI  14
DILLON         CLOUDY    28  17  63 SW7       30.01S WCI  21
W YELLOWSTONE  CLOUDY    16  14  93 SW9       30.10S WCI   4
ENNIS          CLOUDY    25  16  68 S23G31    30.07F WCI  10
THREE FORKS      N/A     32  22  67 W17       29.99R WCI  21
TWIN BRIDGES     N/A     28  15  58 CALM      30.01R
$$

MTZ009-010-012-014-046-048-049-054-180200-
EAST SLOPES AND CENTRAL MONTANA

CITY           SKY/WX    TMP DP  RH WIND       PRES   REMARKS
CUT BANK       FAIR      33  23  66 W30G36    29.71R WCI  19
GREAT FALLS    FAIR      36  20  52 SW23G33   29.81F WCI  24
MALMSTROM AFB  MOCLDY    37  21  53 SW25G36   29.82R WCI  25
HELENA         CLOUDY    32  21  64 SE6       29.96S WCI  26
BOWMANS CRNR   CLOUDY    30  20  66 SW36G44   29.81F WCI  13
CHOTEAU          N/A     39  21  48 W13       29.81R WCI  32
FAIRFIELD      MOCLDY    36  19  50 SW26G32   29.80S WCI  24
POWER          CLOUDY    35  21  55 SW28G35   29.78S WCI  22
RAYNESFORD     MOCLDY    38  20  49 SW26G32   29.78F WCI  26
ULM            CLOUDY    37  21  51 SW29      29.85S WCI  25
$$

MTZ011-013-016-021-045-047-050-051-180200-
NORTH CENTRAL MONTANA

CITY           SKY/WX    TMP DP  RH WIND       PRES   REMARKS
HAVRE          FAIR      37  23  56 SW18      29.73R WCI  27
LEWISTOWN      FAIR      32  22  66 SW18      29.79S WCI  20
N BAR RANCH    FAIR      34  18  51 W6        29.79S WCI  29
CHINOOK          N/A     39  21  48 W24G35    29.71F WCI  28
DENTON         MOCLDY    38  20  48 MISG      29.73S
GEYSER         MOCLDY    34  21  58 W17       29.78F WCI  24
GRASS RANGE    MOCLDY    35  22  59 W26G32    29.72F WCI  22
STANFORD       MOCLDY    34  22  61 W14       29.78S WCI  25
WINIFRED       FAIR      36  21  53 W17       29.76S WCI  26
$$

MTZ017>020-022>027-061-062-180200-
NORTHEAST MONTANA

CITY           SKY/WX    TMP DP  RH WIND       PRES   REMARKS
GLASGOW        FAIR      32  25  75 W7        29.71R WCI  26
GLENDIVE       CLOUDY    36  19  50 SW14      29.74F WCI  27
JORDAN           N/A     40  21  46 W13       29.74R
SIDNEY         CLOUDY    37  20  50 SW8       29.72S WCI  31
WOLF POINT     FAIR      35  25  66 W7        29.72S WCI  29
MALTA          CLOUDY    37  27  65 SW7       29.71S
PLENTYWOOD       N/A     30  25  80 CALM      29.65F
POPLAR           N/A     36  25  64 W5        29.71S
SCOBEY           N/A     29  19  66 CALM      29.67S
$$

MTZ028>42-056>058-180200-
SOUTHCENTRAL AND SOUTHEAST MONTANA

CITY           SKY/WX    TMP DP  RH WIND       PRES   REMARKS
BAKER          MOCLDY    34  23  64 W13       29.77S WCI  25
BILLINGS       MOCLDY    30  24  78 SW18      29.85S WCI  18
LIVINGSTON     CLOUDY    31  21  66 W24G45    29.93R WCI  17
MILES CITY     MOCLDY    35  21  56 W10       29.77F WCI  27
BIG TIMBER     CLEAR     34  19  55 W53G62    29.84F WCI  17
EKALAKA          N/A     31  16  54 W10       29.78R WCI  22
FORSYTH          N/A     37  19  48 SW12      29.79F WCI  30
HARLOWTON      MOCLDY    30  21  69 W38G45    29.81F WCI  13
LAUREL           N/A     28  25  86 SW15      29.87S WCI  17
ROUNDUP          N/A     36  15  42 SW25      29.74S WCI  24
$$

REGIONAL REPORTS...DAKOTAS

CITY           SKY/WX    TMP DP  RH WIND       PRES   REMARKS
WILLISTON      CLOUDY    36  21  54 SW7       29.70S WCI  30
MINOT          CLOUDY    38  26  62 SW12      29.67F WCI  30
DICKINSON      CLOUDY    34  22  61 SW10      29.71S WCI  26
BEACH          CLOUDY    34  18  51 W10       29.77S WCI  26
CROSBY         MOCLDY    32  23  69 SW13G18   29.65F WCI  22
TIOGA          CLOUDY    32  19  59 W18       29.68S WCI  20
BISMARCK       FAIR      35  22  58 S8        29.78F WCI  29
GRAND FORKS    FAIR      17  16  95 S9        29.82F WCI   6
FARGO          FOG       30  29  96 S12       29.87F VSB 3/4 WCI  20
BUFFALO SD       N/A     32  24  72 SW13      29.72F WCI  22
RAPID CITY     FAIR      30  22  72 NW8       29.83R WCI  22
$$

REGIONAL REPORTS...WYOMING/IDAHO/WASHINGTON

CITY           SKY/WX    TMP DP  RH WIND       PRES   REMARKS
GILLETTE       FAIR      21  14  74 SW7       29.85R WCI  12
SHERIDAN       FAIR      17  14  88 CALM      29.85S
BUFFALO WY     FAIR      27  14  58 S6        29.85R WCI  20
CODY           FAIR      32  17  54 NW7G25    29.88S WCI  26
YELLOWSTONE LA   N/A     13  10  88 CALM      30.08S
IDAHO FALLS    CLOUDY    23  20  88 S6        30.22S WCI  16
SALMON         CLOUDY    22  13  68 CALM      30.17
BOISE          CLOUDY    36  21  54 CALM      30.23R
SPOKANE        CLOUDY    33  32  96 S13       29.97F WCI  24
$$

REGIONAL REPORTS...ALBERTA

CITY           SKY/WX    TMP DP  RH WIND       PRES   REMARKS
EDMONTON       CLEAR     36  16  44 W9        29.52R WCI  29
CALGARY        CLOUDY    41  14  33 W10G17    29.58F
LETHBRIDGE     MOCLDY    39  21  48 SW30G40   29.66R WCI  27
MEDICINE HAT   CLOUDY    37  25  60 S14G21    29.63S WCI  29
$$

REGIONAL REPORTS...SASKATCHEWAN

CITY           SKY/WX    TMP DP  RH WIND       PRES   REMARKS
SWIFT CURRENT  CLOUDY    34  27  75 W13G20    29.59R WCI  25
REGINA         CLOUDY    28  25  86 SW13      29.56S WCI  18
SASKATOON      MOCLDY    30  25  80 SW15      29.48R WCI  19
$$




USA.gov is the U.S. government's official web portal to all federal, state and local government web resources and services.